{"data":{"norad_id":66165,"intl_designator":"2025-240V","name":"STARLINK-35575","alt_names":[],"object_type":"PAYLOAD","status":"ACTIVE","operator":null,"country":"US","launch_date":"2025-10-25","launch_site_code":"AFWTR","launch_vehicle":null,"mission":null,"orbit_class":"UNKNOWN","rcs_meters":null,"size_class":null,"mass_kg":null,"dimensions":null,"purposes":["comms"],"wikipedia_slug":null,"has_3d_model":false,"image_url":null,"decayed_at":null,"tle_current":{"epoch":"2026-05-25T01:54:30.189312Z","epoch_age_seconds":68203,"freshness":"FRESH","line1":"1 66165U 25240V   26145.07951608  .00014640  00000+0  44347-3 0  9990","line2":"2 66165  53.1579  67.3010 0000910  90.3401 269.7706 15.34406691 33697","mean_motion":15.34406691,"eccentricity":9.1e-5,"inclination_deg":53.1579,"raan_deg":67.301,"arg_perigee_deg":90.3401,"mean_anomaly_deg":269.7706,"bstar":0.00044347,"rev_number":3369,"period_min":93.847348844753,"perigee_km":462.06083856516,"apogee_km":463.30586786945,"semimajor_km":6840.8203532173,"source":"CELESTRAK","updated_at":"2026-05-25T13:38:21.072914Z"}}}